Miscellaneous Local Product
Issued by NWS Hastings, NE

Home | Current Version | Previous Version | Graphics & Text | Print | Product List | Glossary On
Versions: 1 2 3 4 5 6 7 8 9 10 11 12 13 14 15 16 17 18 19 20 21 22 23 24 25 26 27 28 29 30 31 32 33 34 35 36 37 38 39 40 41 42 43 44 45 46 47 48 49 50
000
AXUS43 KGID 162202
MISGRI

GID CWA HOURLY WEATHER ROUNDUP
NATIONAL WEATHER SERVICE HASTINGS NE
400 PM CST TUE DEC 16 2014

NOTE: "FAIR" INDICATES FEW OR NO CLOUDS BELOW 12,000 FEET WITH NO
SIGNIFICANT WEATHER AND/OR OBSTRUCTIONS TO VISIBILITY.

...SOUTH CENTRAL NEBRASKA...

CITY           SKY/WX    TMP DP  RH WIND       PRES   REMARKS
GRAND ISLAND   CLOUDY    24  18  77 N7        30.32R WCI  16
HASTINGS       CLOUDY    25  18  74 N9        30.30R WCI  15
KEARNEY        CLOUDY    25  18  74 N7        30.29F WCI  17
ORD            CLOUDY    22  16  78 N8        30.29S WCI  12
YORK           CLOUDY    25  19  80 N8G18     30.32R WCI  16
AURORA         CLOUDY    24  20  84 N9        30.32R WCI  15
LEXINGTON      CLOUDY    24  19  82 N5        30.27F WCI  18
HOLDREGE       CLOUDY    24  19  81 NW3       30.28S
HEBRON         CLOUDY    28  19  70 NW9       30.33R WCI  19

...NEBRASKA PANHANDLE...

CITY           SKY/WX    TMP DP  RH WIND       PRES   REMARKS
CHADRON        MOSUNNY   20  15  81 SE8       30.16S WCI  10
ALLIANCE       CLOUDY    22  20  92 SE7       30.13R WCI  13
SCOTTSBLUFF    PTSUNNY   18  15  88 SE8       30.11F WCI   8
SIDNEY         SUNNY     22  17  81 SE7       30.10S WCI  13

...WESTERN AND NORTH CENTRAL NEBRASKA...

CITY           SKY/WX    TMP DP  RH WIND       PRES   REMARKS
VALENTINE      CLOUDY    21  16  81 NW3       30.26R
AINSWORTH      CLOUDY    21  17  85 NW3       30.25S
ONEILL         CLOUDY    21  18  90 NW3       30.31R
BROKEN BOW     CLOUDY    23  19  85 N5        30.26S WCI  17
IMPERIAL       CLOUDY    23  20  88 E6        30.19F WCI  16
NORTH PLATTE   MOSUNNY   25  17  72 CALM      30.24F
MCCOOK         MOSUNNY   30  20  66 E7        30.24S WCI  23

...EASTERN NEBRASKA...

CITY           SKY/WX    TMP DP  RH WIND       PRES   REMARKS
NORFOLK        CLOUDY    22  17  81 NW12      30.31R WCI  10
SO SIOUX CITY  CLEAR     23  14  68 NW20      30.31R WCI   8
TEKAMAH        CLEAR     27  17  66 NW13      30.32R WCI  16
COLUMBUS       CLOUDY    23  12  63 NW12      30.33S WCI  12
ALBION         CLOUDY    21  16  80 NW12      30.30S WCI   9
OMAHA EPPLEY   PTCLDY    27  17  66 NW18      30.32R WCI  14
OFFUTT AFB     MOCLDY    27  19  70 NW17      30.31R WCI  14
MILLARD        CLOUDY    27  19  71 NW14G20   30.32R WCI  16
LINCOLN        CLOUDY    26  18  71 NW12      30.34R WCI  16
NEBRASKA CITY  CLOUDY    28  20  72 NW12      30.31R WCI  17
BEATRICE       CLOUDY    26  20  75 NW12      30.32R WCI  16
FALLS CITY     CLOUDY    28  19  69 NW15      30.32R WCI  16

...NORTHERN KANSAS...

CITY           SKY/WX    TMP DP  RH WIND       PRES   REMARKS
GOODLAND       CLOUDY    36  18  48 SE12      30.16S WCI  28
HILL CITY      MOSUNNY   32  20  61 NE9       30.27S WCI  24
NORTON         MOCLDY    28  19  69 NE8       30.25F WCI  20
PHILLIPSBURG   SUNNY     30  21  69 NW8       30.30F WCI  23
SMITH CENTER   SUNNY     27  19  74 N9        30.30F WCI  17
BELOIT         SUNNY     34  21  60 N10       30.31F WCI  26
HAYS           SUNNY     34  18  51 NE8       30.28S WCI  27
RUSSELL        SUNNY     36  22  56 N7        30.28S WCI  30
CONCORDIA      CLOUDY    30  23  75 N8        30.32R WCI  22
SALINA         SUNNY     36  22  56 N10       30.32R WCI  28
TOPEKA         PTCLDY    32  22  66 NW9       30.33R WCI  24



USA.gov is the U.S. government's official web portal to all federal, state and local government web resources and services.